Terminal Aerodrome Forecast
Issued by NWS

Current Version | Previous Version | Text Only | Print | Product List | Glossary Off
Versions: 1 2 3 4 5 6 7 8 9 10 11 12 13 14 15 16 17 18 19 20 21 22 23 24 25

000
FTUS41 KRLX 281700
TAFCKB
TAF
KCKB 281732Z 2818/2918 28015G20KT P6SM VCTS BKN025CB
     FM290000 30005KT P6SM SCT035 BKN080
     FM290600 00000KT 5SM BR BKN040
     FM291100 00000KT 2SM BR SCT015
     FM291300 00000KT 3SM BR SCT070
     FM291400 00000KT P6SM SCT200
     FM291600 VRB03KT P6SM SCT040=

USA.gov is the U.S. government's official web portal to all federal, state and local government web resources and services.